Theta_e
305 304 304 303 303 303 302 302 302 303 302 302 301 301 302 303 303 303 302 300 300 300 301 302 303 304 304 304 304 299 300 300 311 307 309 310 312 313 314 314 315 315 314 313 313 313 313
303 303 303 302 302 302 302 302 302 302 302 301 301 301 302 302 302 301 301 299 295 296 298 302 303 304 303 302 300 300 301 302 303 315 312 309 310 311 311 311 313 314 315 314 314 315 314
303 303 304 302 302 302 302 302 302 301 301 300 301 301 301 301 301 301 300 297 296 296 299 304 306 305 304 303 299 300 301 302 301 302 309 311 310 310 310 311 310 311 312 312 314 315 315
302 301 301 301 301 301 301 301 301 301 300 300 300 300 300 300 300 297 296 295 296 299 304 306 307 305 306 304 302 302 301 303 303 302 302 303 312 311 312 313 315 316 314 315 314 312 314
301 300 301 300 301 301 301 300 300 300 300 299 299 299 300 299 299 297 296 296 298 303 307 305 305 305 306 304 306 307 306 304 304 303 302 306 310 312 311 315 312 315 317 318 318 315 315
300 300 300 300 300 299 299 299 300 299 299 299 299 299 299 299 299 298 296 296 302 307 302 306 306 305 304 305 307 306 308 306 306 306 306 306 307 308 308 312 314 315 318 317 317 317 314
299 300 299 299 299 299 298 299 299 298 299 298 298 298 298 299 299 297 297 297 300 301 298 299 300 304 304 302 302 304 308 307 308 306 305 306 308 309 309 311 311 314 316 317 315 314 315
298 298 299 299 298 298 298 298 299 299 298 298 297 297 298 298 297 297 296 297 297 296 299 299 300 300 301 302 303 303 304 308 309 310 306 306 309 308 308 309 311 313 314 314 315 314 314
298 297 297 297 297 297 297 297 298 298 297 297 297 297 298 298 296 297 296 297 297 297 301 301 302 302 302 303 303 304 307 308 310 313 308 306 307 307 307 308 310 311 312 313 313 313 314
297 296 296 296 296 297 297 297 297 297 297 297 297 297 297 297 296 296 296 296 296 296 303 303 305 305 304 306 306 304 304 308 305 314 311 309 308 307 308 308 308 309 309 310 310 313 313
296 296 296 296 296 297 297 296 297 297 296 297 296 297 297 297 296 295 295 295 296 299 301 301 305 306 305 305 305 307 305 306 306 312 312 313 313 309 308 308 308 308 309 310 317 317 319
296 296 296 296 297 297 296 296 296 296 296 296 297 297 297 296 295 295 295 295 298 301 301 302 306 306 307 306 305 305 305 306 305 307 308 311 308 311 310 316 308 316 318 319 319 319 318
295 295 295 295 296 295 296 296 296 296 296 296 296 295 296 295 295 295 295 296 300 300 300 303 305 305 307 308 307 306 305 306 308 309 308 307 307 314 317 318 317 315 316 319 316 319 314
295 295 295 295 295 296 296 296 296 296 296 296 295 293 294 295 296 295 295 298 298 297 300 304 304 306 309 309 310 307 306 306 305 305 307 308 308 313 315 317 319 315 316 317 315 319 320
295 295 294 294 296 296 296 296 296 296 296 296 293 294 294 295 296 295 295 296 297 301 301 302 303 309 311 306 307 308 308 307 306 305 307 307 307 312 314 315 315 317 317 314 317 317 318
295 294 294 294 295 295 295 295 295 296 296 295 294 293 293 296 296 296 296 297 296 297 297 302 306 308 311 308 308 312 313 312 311 306 306 308 315 312 314 314 315 315 316 318 318 321 321
294 293 294 294 294 295 295 295 295 296 295 294 294 293 295 296 295 296 297 295 296 296 299 304 303 302 309 309 308 314 314 313 310 311 310 313 315 315 313 313 317 316 317 317 317 318 319
294 293 293 294 294 295 295 295 295 296 295 294 291 291 293 295 296 298 298 297 297 296 297 300 303 304 307 307 310 313 312 310 309 311 312 312 315 317 316 314 314 315 317 316 317 318 318
295 293 293 295 294 294 294 295 295 296 295 294 292 292 293 296 295 296 297 297 297 297 297 299 300 302 305 309 311 313 311 309 310 310 309 311 313 321 318 315 312 315 317 319 318 317 317
295 292 292 294 293 294 294 294 294 295 295 294 291 291 291 294 296 296 297 296 298 299 299 301 305 304 307 308 310 310 311 308 309 311 313 313 311 311 315 314 314 313 312 315 317 317 315
294 293 293 293 293 293 293 294 293 295 295 294 292 289 293 292 294 295 296 297 298 299 304 305 306 306 308 309 309 309 308 309 308 308 310 310 312 311 310 311 313 312 311 311 314 315 316
292 293 293 292 292 293 293 294 293 295 296 294 294 293 293 294 294 294 296 297 297 298 302 305 303 303 306 307 308 308 306 308 308 308 308 309 312 310 308 309 308 309 308 309 310 311 312
293 293 292 292 293 293 294 293 293 295 296 295 293 293 294 293 294 294 296 295 296 297 299 301 301 303 305 306 305 305 305 305 305 308 307 309 309 307 308 309 307 305 307 305 306 307 314
293 292 293 292 293 293 295 293 295 295 296 296 293 293 294 293 293 294 294 295 296 296 299 300 302 303 304 301 303 303 305 305 306 307 307 309 308 309 308 309 306 305 306 306 308 309 313
292 292 292 292 293 295 293 293 294 295 295 296 294 293 295 293 294 294 295 295 295 298 299 300 302 300 300 302 304 304 305 304 305 307 306 307 308 309 308 307 306 305 310 309 309 308 312
292 292 292 292 293 294 292 292 294 294 295 297 295 295 294 294 293 294 295 296 298 299 298 300 300 298 300 302 304 306 306 306 306 307 306 306 306 308 308 306 306 306 308 310 311 306 309
292 292 292 292 293 293 291 293 294 294 294 297 295 295 293 295 293 293 296 296 296 296 296 298 298 299 299 302 306 306 306 304 305 306 307 308 307 307 306 306 306 308 309 309 308 309 307
291 292 292 292 293 294 291 291 293 293 294 295 297 296 294 294 293 292 293 294 294 295 296 297 298 297 300 303 304 305 305 305 306 306 308 307 308 307 307 308 308 307 309 311 309 306 305
290 292 292 293 294 293 293 292 292 293 294 295 296 296 295 294 294 293 293 294 294 294 296 295 297 297 300 299 301 301 303 303 303 307 306 309 308 308 309 310 304 303 302 300 301 301 301
Wind_Speed
5 5 6 7 7 8 9 10 11 13 14 16 18 19 19 21 21 23 27 30 33 33 30 28 23 17 10 4 13 23 21 17 5 9 10 7 10 10 12 6 7 9 8 8 15 14 11
3 3 3 4 6 8 10 10 11 12 14 16 17 17 19 20 22 25 28 32 38 38 35 29 23 14 6 16 14 12 11 8 1 8 8 11 9 13 7 10 12 4 15 17 13 14 8
3 4 6 3 5 7 8 9 11 13 15 16 17 18 20 22 24 26 29 35 39 35 33 25 17 11 14 24 18 11 12 16 15 14 4 12 10 7 6 3 7 8 10 13 11 8 6
2 3 4 4 4 6 8 10 12 14 14 16 18 19 21 23 26 30 35 37 36 30 22 15 6 10 11 14 19 25 27 25 24 21 19 16 11 9 4 3 2 4 3 4 4 16 10
1 2 3 3 4 6 8 11 12 12 15 18 19 20 22 25 27 30 36 34 29 19 8 5 5 5 12 8 6 12 14 12 3 15 15 5 7 5 4 7 5 2 6 4 5 11 6
2 1 2 4 6 7 9 11 12 14 15 17 18 20 22 24 28 32 35 34 14 5 9 5 2 4 9 3 8 23 8 9 6 8 5 9 6 7 5 8 12 8 5 6 9 3 7
2 1 2 4 5 7 10 11 11 13 15 17 20 21 23 24 27 32 28 11 6 3 9 8 19 16 24 34 29 17 7 9 4 5 9 9 10 17 17 15 11 8 9 12 3 4 4
1 2 1 4 7 9 10 10 11 13 16 18 20 22 23 24 27 20 26 4 7 10 14 18 28 27 39 18 12 20 18 7 8 7 8 5 20 12 13 11 13 11 14 14 7 8 5
2 2 4 5 7 8 9 10 12 13 16 18 20 21 23 25 23 11 19 1 20 22 6 19 16 16 15 22 18 23 11 7 8 13 14 14 3 14 12 9 12 11 15 9 11 3 4
2 1 2 5 7 7 9 10 12 14 16 18 20 21 22 27 6 20 12 20 27 18 5 9 4 5 6 7 9 24 22 8 6 16 13 9 9 7 13 17 14 15 10 9 6 4 7
3 1 3 4 6 7 9 11 12 14 16 18 19 20 20 18 13 8 15 26 31 3 6 2 1 4 3 6 14 4 17 10 11 8 8 8 7 10 5 8 13 9 9 9 5 4 2
3 2 4 4 5 7 9 10 13 15 16 17 19 19 20 13 16 13 20 28 5 2 8 7 4 15 14 11 6 4 12 4 3 4 2 4 1 6 7 3 10 10 8 6 4 2 4
4 3 2 3 6 8 9 10 13 14 16 17 19 20 21 14 6 19 18 8 1 5 9 8 13 16 18 24 5 8 13 8 10 8 6 3 3 3 6 8 7 3 6 2 3 4 4
5 3 4 5 6 6 8 10 12 14 16 17 20 21 19 7 13 11 6 1 5 7 8 18 14 26 10 9 3 10 16 9 3 6 7 9 5 8 4 4 9 5 5 4 4 3 1
6 4 5 5 6 6 7 9 11 14 15 18 21 15 8 10 13 2 1 1 4 4 8 15 22 5 4 13 9 7 8 9 4 5 5 6 2 2 3 4 6 4 4 2 3 1 1
7 6 5 5 6 8 7 8 11 12 14 16 15 8 6 12 5 2 2 4 6 11 18 16 7 10 6 10 9 1 3 2 1 6 1 6 6 3 6 5 11 3 8 4 2 2 2
8 6 6 4 6 6 6 8 10 11 12 12 6 3 2 7 6 1 2 5 7 12 14 5 6 10 6 8 12 3 5 3 6 1 2 2 3 4 4 1 7 4 3 4 4 2 2
10 6 7 5 6 7 5 7 8 10 11 8 3 2 7 9 3 1 3 5 10 15 15 10 5 5 7 8 5 4 6 9 15 2 3 2 4 5 3 2 7 3 4 3 3 4 1
11 8 9 6 6 5 5 6 7 8 8 3 2 2 3 5 3 4 6 9 9 11 9 4 6 6 3 5 5 6 8 12 11 5 2 0 2 6 8 5 7 6 3 6 7 3 4
12 8 9 7 7 6 6 5 5 5 5 4 2 3 3 3 1 5 9 8 14 12 11 6 7 5 3 5 7 7 9 9 11 9 10 4 5 5 5 6 3 4 2 3 3 2 1
9 9 9 7 8 7 5 5 5 3 2 2 2 1 1 4 3 5 5 5 13 8 5 8 2 10 5 5 7 8 10 7 11 18 4 3 6 6 8 6 3 2 4 3 5 6 5
12 9 9 7 9 9 8 5 5 2 2 2 1 0 1 3 7 6 3 4 13 18 5 5 10 12 6 6 5 4 7 3 1 7 5 5 2 2 3 5 4 1 6 4 7 8 11
11 11 12 11 10 9 8 7 8 4 9 3 2 1 1 3 3 3 2 6 11 14 7 6 13 5 6 7 10 12 7 6 4 6 5 2 3 1 2 2 4 4 2 3 2 3 3
11 11 11 11 11 13 12 7 7 6 10 7 5 3 2 3 2 4 9 12 13 13 8 9 8 7 5 15 13 5 4 5 4 5 2 1 2 2 2 1 1 1 6 2 2 4 8
11 11 11 13 13 11 7 8 8 5 6 12 8 5 2 2 3 8 6 8 12 9 4 4 5 5 12 6 4 3 2 1 4 8 3 0 2 3 2 1 5 2 6 6 6 9 10
11 13 13 14 15 9 10 10 9 7 5 16 12 12 3 1 3 2 3 3 3 5 7 3 4 9 6 2 2 3 3 3 3 2 6 4 4 3 2 2 1 4 9 10 4 8 14
14 14 14 16 16 14 13 10 11 9 6 11 7 17 4 2 3 4 2 2 2 2 3 4 7 7 6 5 3 3 2 3 2 3 2 3 4 4 2 1 5 6 15 10 2 5 10
14 15 16 17 17 15 13 10 13 11 8 8 5 17 9 3 4 6 4 4 2 1 2 4 3 3 4 5 4 3 3 3 2 2 3 2 1 1 2 3 3 13 5 4 2 10 8
15 17 16 19 16 12 12 12 14 12 10 9 5 11 20 2 3 4 10 19 14 7 2 2 1 2 3 2 3 2 1 3 4 2 4 2 4 2 3 3 7 8 8 11 12 9 11
Wind_Direction
83 65 52 39 28 21 20 12 14 8 8 0 353 351 345 341 339 335 332 329 326 324 321 318 312 313 330 271 247 257 273 306 265 192 206 190 188 194 200 197 208 230 229 219 243 253 245
78 46 30 24 21 21 18 13 12 7 359 354 354 354 347 344 338 334 329 324 325 324 322 312 300 289 258 261 262 290 269 261 305 227 205 197 205 210 221 224 208 194 231 243 245 252 251
80 58 48 1 2 8 16 9 8 358 353 356 356 351 345 340 335 332 330 329 327 324 321 310 295 236 242 244 265 277 260 272 257 267 259 219 224 197 198 226 212 243 252 252 234 244 239
78 13 351 340 5 353 10 1 360 352 354 353 349 345 340 336 333 334 335 331 328 323 319 320 274 195 253 266 278 277 274 268 266 244 231 254 234 227 222 279 248 225 180 226 224 219 235
19 358 21 26 3 3 0 358 357 356 349 349 348 345 342 339 335 335 333 332 327 321 342 1 111 192 267 286 247 303 250 243 231 215 216 244 179 202 163 205 246 219 237 205 251 211 202
161 89 31 26 8 355 353 357 351 349 350 350 346 343 340 340 334 333 334 337 340 347 359 297 247 244 265 272 308 324 276 229 228 128 163 186 196 190 191 183 214 214 207 222 231 206 217
178 354 7 13 3 353 351 357 347 350 346 346 341 338 338 335 332 336 345 356 8 339 5 282 270 262 283 279 288 273 265 315 210 163 180 182 194 209 195 200 203 216 229 245 205 222 296
133 87 35 3 342 347 348 342 340 348 342 341 340 340 337 336 332 337 357 51 52 303 297 266 251 249 248 256 278 257 257 229 189 167 153 159 221 201 186 192 203 214 238 247 267 255 260
135 359 346 335 348 351 347 349 348 343 338 340 344 340 336 338 336 357 345 331 335 343 270 288 254 252 246 210 229 254 184 193 212 173 195 207 207 185 181 187 198 217 225 219 249 281 260
217 347 7 336 346 347 347 349 342 338 335 339 340 337 337 343 3 336 309 326 332 336 279 282 256 292 215 157 224 227 201 183 203 192 172 227 231 148 200 212 194 225 210 212 198 212 265
226 276 274 326 341 344 350 346 341 337 337 337 335 333 336 338 315 306 311 323 328 162 299 263 245 356 221 202 311 200 193 197 181 163 156 199 172 180 181 208 185 223 177 191 164 180 286
233 254 283 325 333 350 341 338 339 337 340 336 331 330 335 328 317 308 321 321 320 209 247 302 329 349 315 291 268 54 184 238 149 102 63 154 146 167 184 89 174 142 102 68 69 139 242
224 268 271 319 329 328 330 336 336 338 338 333 328 328 326 320 284 314 321 334 255 230 332 340 328 337 313 296 243 151 180 184 165 162 182 156 183 103 130 105 125 145 139 146 201 196 233
231 248 264 297 309 317 327 330 335 340 339 333 331 328 326 345 334 319 323 57 233 306 322 337 325 313 320 288 175 153 158 175 95 94 152 178 192 168 168 159 173 172 176 182 210 199 207
258 208 283 289 303 315 317 325 335 335 336 334 334 334 346 346 332 41 44 24 289 341 0 326 323 325 311 347 0 128 178 175 155 163 150 161 154 79 79 126 148 167 168 84 116 60 254
224 245 277 274 299 307 309 329 335 335 334 333 333 337 334 351 56 70 32 260 277 309 321 327 321 332 329 326 335 160 145 344 240 199 126 188 104 99 145 101 41 158 143 139 37 137 242
235 253 252 265 286 311 315 328 333 340 344 339 349 13 20 43 325 24 254 254 295 300 317 312 347 307 313 334 315 360 28 78 8 55 138 129 105 118 151 162 152 142 143 75 110 148 172
236 250 261 260 262 293 297 327 334 347 348 353 32 8 359 311 353 344 319 281 298 299 300 297 266 315 291 307 300 67 44 13 335 357 75 24 90 90 79 11 117 107 124 130 163 162 204
223 245 254 248 263 263 291 310 328 348 2 15 17 286 345 338 31 338 323 298 278 283 290 283 300 250 281 297 359 19 9 342 11 44 61 197 97 135 125 105 51 78 99 110 90 90 226
216 245 243 231 266 260 281 287 308 346 356 29 43 356 328 27 260 316 345 331 341 301 264 273 296 323 306 340 356 19 10 345 6 16 19 76 46 62 108 108 127 119 92 123 131 171 237
219 230 257 237 250 259 265 282 292 319 322 70 53 308 330 323 317 321 316 293 329 344 333 2 283 353 350 5 3 18 13 355 5 353 29 72 64 79 85 100 107 138 240 250 223 226 247
235 238 230 239 254 253 263 259 273 285 215 116 153 262 193 277 292 328 329 322 337 341 320 18 9 339 32 44 10 321 337 26 10 323 21 5 105 37 70 98 68 278 282 239 243 252 254
230 233 243 245 242 244 246 267 258 243 187 126 166 182 171 294 309 341 313 331 314 334 301 300 328 324 354 349 313 287 290 291 300 339 0 32 125 111 115 17 347 284 138 341 277 257 279
237 235 229 244 247 246 247 260 254 239 217 188 170 162 173 277 263 296 301 312 305 319 286 310 358 7 334 321 296 246 262 287 299 322 317 53 76 38 98 319 116 32 299 147 251 40 8
236 236 234 244 238 255 218 261 250 246 225 212 183 165 195 264 268 291 298 295 308 314 329 309 335 313 303 306 339 328 20 143 95 29 57 32 92 100 111 49 310 14 40 22 356 343 10
229 232 236 233 240 208 253 261 245 254 241 218 221 199 172 173 255 280 304 304 326 332 337 315 318 319 347 3 4 12 44 332 7 78 41 61 60 73 78 72 269 75 337 318 265 295 6
232 229 238 237 253 233 246 246 242 252 250 221 212 209 147 198 254 189 245 302 329 347 296 298 335 342 356 2 34 21 31 323 10 12 3 54 56 71 114 253 279 356 331 312 287 346 5
228 231 242 241 261 232 236 248 239 249 252 249 227 216 181 199 268 201 210 221 286 267 263 312 339 10 2 34 4 1 5 17 312 12 353 31 54 113 162 216 281 358 341 11 355 43 49
232 237 231 232 238 219 238 251 238 244 248 239 225 212 213 219 272 281 257 250 236 220 192 19 247 289 349 338 16 320 347 7 5 55 9 65 15 348 347 29 10 28 45 22 41 61 41